Location: *
(50.3440°N, 18.6237°E)
Time: 18:05:25
(UTC+00:00)

CZ-4B R/B - Pass Details

Date: 30 November 2020
Orbit: 809 x 881 km, 99.1° (Epoch: 17 January)

Event Time Altitude Azimuth Distance (km) Brightness Sun altitude
Rises 16:15:44 0° 171° (S) 3,339 6.4 -13.7°
Reaches altitude 10° 16:18:05 10° 175° (S) 2,404 5.7 -14.1°
Maximum altitude 16:23:21 65° 257° (WSW) 893 3.6 -14.9°
Drops below altitude 10° 16:28:38 10° 339° (NNW) 2,407 5.6 -15.7°
Sets 16:31:01 0° 343° (NNW) 3,344 6.3 -16.1°
